30.04.2024;21:00;111
30.04.2024;20:00;113
30.04.2024;19:00;111
30.04.2024;18:00;111
30.04.2024;17:00;113
30.04.2024;16:00;109
30.04.2024;15:00;109
30.04.2024;14:00;110
30.04.2024;13:00;107
30.04.2024;12:00;102
30.04.2024;11:00;97
30.04.2024;10:00;99
30.04.2024;09:00;99
30.04.2024;08:00;95
30.04.2024;07:00;99
30.04.2024;06:00;97
30.04.2024;05:00;99
30.04.2024;04:00;98
30.04.2024;03:00;101
30.04.2024;02:00;105
30.04.2024;01:00;104
30.04.2024;00:00;107
29.04.2024;23:00;108
29.04.2024;22:00;113
29.04.2024;21:00;116
29.04.2024;20:00;112
29.04.2024;19:00;109
29.04.2024;18:00;113
29.04.2024;17:00;115
29.04.2024;16:00;113
29.04.2024;15:00;112
29.04.2024;14:00;107
29.04.2024;13:00;100
29.04.2024;12:00;93
29.04.2024;11:00;84
29.04.2024;10:00;81
29.04.2024;09:00;82
29.04.2024;08:00;90
29.04.2024;07:00;101
29.04.2024;06:00;100
29.04.2024;05:00;96
29.04.2024;04:00;94
29.04.2024;03:00;91
29.04.2024;02:00;99
29.04.2024;01:00;99
29.04.2024;00:00;97
28.04.2024;23:00;97
28.04.2024;22:00;105
